Location: Emory University Observatory
(33.7903°N, 84.3267°W)
Time: 20:01:27
(UTC-04:00)

Envisat - Pass Details

Date: 10 October 2017
Orbit: 764 x 766 km, 98.2° (Epoch: 18 October)

Event Time Altitude Azimuth Distance (km) Brightness Sun altitude
Exits shadow 21:07:41 29° 19° (NNE) 1,384 4.2 -25.4°
Drops below altitude 10° 21:10:21 10° 1° (N) 2,305 5.5 -25.9°
Sets 21:12:44 0° 356° (N) 3,235 6.4 -26.4°
